星链-36690(STARLINK-36690)

导读 | 豆包AI

STARLINK-36690是美国SpaceX星链星座的卫星,于2026年2月22日发射,是星链全球互联网星座组网进程中的一员。星链星座旨在为全球用户提供低延迟、高速率的宽带互联网服务,该卫星继承了星链星座设计,将提升星座覆盖密度,增强相关地区网络服务能力。

基本信息
目录编号:
67913
目录名称:
STARLINK-36690
国际标识:
2026-036K
轨道中心:
EARTH
卫星名称:
星链-36690
卫星全名:
星链-36690(STARLINK-36690)
卫星状态:
在轨 (已飞行92 天)
发射日期:
2026-02-22 UTC
国别 :
美国 (US)
星等 :
--
轨道信息
数据来源 国际轨道数据 AOE轨道数据
星历时间 2026-05-25T11:08:52+0800
9小时前
查看轨道信息
2026-05-23T07:00:00+0800
2天前
查看轨道信息
半长轴 6861.201km 6861.229km
偏心率 0.0001471 0.000156
轨道倾角 43.003° 43.004°
近地点辐角 271.067° 266.635°
升交点赤经 173.484° 185.756°
平近点角 89.001° 10.501°
近地点 482.054km 482.021km
远地点 484.074km 484.163km
周期 94.267分钟 94.268分钟
每日圈数 15.275752 15.275658
详细信息
固有亮度:
5
最大亮度:
2.5
卫星平台:
Starlink V1.0
覆盖范围:
全球
运营商:
太空探索技术公司
运营商所在国:
美国
制造商(研发单位):
太空探索技术公司
制造商所在国:
美国
使用方式:
暂无
卫星简介
Starlink 计划是 SpaceX 推出的全球卫星互联网项目,通过发射低轨道卫星,为全球尤其是偏远地区提供高速、低延迟的互联网服务。自 2019 年起,Starlink 已部署数千颗卫星,旨在缩小全球数字鸿沟,推动互联网普及。该项目还为军事、航空等行业提供通信支持,带来广泛经济效益。
2D轨道图
3D轨道图
轨道高度分析图
轨道倾角分析图
轨道综合分析图
查看轨道综合分析图